TimeCST,TemperatureF,Dew PointF,Humidity,Sea Level PressureIn,VisibilityMPH,Wind Direction,Wind SpeedMPH,Gust SpeedMPH,PrecipitationIn,Events,Conditions,WindDirDegrees,DateUTC
12:17 AM,1.4,-4.0,78,30.25,10.0,South,4.6,-,N/A,,Overcast,170,2013-12-12 06:17:00
12:37 AM,2.1,-3.5,77,30.25,10.0,South,3.5,-,N/A,,Overcast,180,2013-12-12 06:37:00
12:56 AM,2.3,-3.1,78,30.23,10.0,South,5.8,-,N/A,,Overcast,170,2013-12-12 06:56:00
1:17 AM,3.0,-2.4,78,30.22,10.0,South,3.5,-,N/A,,Overcast,170,2013-12-12 07:17:00
1:37 AM,3.0,-2.2,79,30.21,10.0,South,3.5,-,N/A,,Mostly Cloudy,180,2013-12-12 07:37:00
1:56 AM,2.7,-2.2,80,30.20,10.0,Calm,Calm,-,N/A,,Scattered Clouds,0,2013-12-12 07:56:00
2:17 AM,2.3,-2.2,81,30.20,10.0,South,3.5,-,N/A,,Clear,190,2013-12-12 08:17:00
2:36 AM,2.3,-2.2,81,30.20,10.0,Calm,Calm,-,N/A,,Clear,0,2013-12-12 08:36:00
2:57 AM,2.1,-2.2,82,30.20,10.0,Calm,Calm,-,N/A,,Clear,0,2013-12-12 08:57:00
3:17 AM,1.6,-2.4,83,30.21,10.0,Calm,Calm,-,N/A,,Clear,0,2013-12-12 09:17:00
3:36 AM,1.4,-2.2,85,30.21,10.0,Calm,Calm,-,N/A,,Clear,0,2013-12-12 09:36:00
3:57 AM,-0.0,-3.5,85,30.22,10.0,Calm,Calm,-,N/A,,Clear,0,2013-12-12 09:57:00
4:16 AM,-1.1,-4.0,88,30.21,10.0,Calm,Calm,-,N/A,,Clear,0,2013-12-12 10:16:00
4:37 AM,-0.9,-4.0,87,30.21,10.0,Calm,Calm,-,N/A,,Clear,0,2013-12-12 10:37:00
4:56 AM,0.3,-2.4,88,30.21,10.0,Calm,Calm,-,N/A,,Clear,0,2013-12-12 10:56:00
5:17 AM,0.7,-2.2,88,30.21,10.0,Calm,Calm,-,N/A,,Clear,0,2013-12-12 11:17:00
5:36 AM,2.3,-0.9,86,30.22,10.0,Calm,Calm,-,N/A,,Clear,0,2013-12-12 11:36:00
5:57 AM,2.7,-0.9,85,30.21,10.0,Calm,Calm,-,N/A,,Clear,0,2013-12-12 11:57:00
6:17 AM,3.2,-0.4,85,30.22,10.0,WSW,4.6,-,N/A,,Mostly Cloudy,240,2013-12-12 12:17:00
6:37 AM,3.9,0.3,85,30.23,10.0,West,3.5,-,N/A,,Mostly Cloudy,270,2013-12-12 12:37:00
6:57 AM,3.6,0.1,86,30.22,10.0,West,3.5,-,N/A,,Scattered Clouds,270,2013-12-12 12:57:00
7:17 AM,3.2,-0.0,86,30.23,10.0,Calm,Calm,-,N/A,,Clear,0,2013-12-12 13:17:00
7:37 AM,2.8,-0.4,86,30.23,10.0,Calm,Calm,-,N/A,,Clear,0,2013-12-12 13:37:00
7:56 AM,3.2,0.1,87,30.23,10.0,Calm,Calm,-,N/A,,Clear,0,2013-12-12 13:56:00
8:17 AM,3.7,0.5,86,30.23,10.0,Calm,Calm,-,N/A,,Clear,0,2013-12-12 14:17:00
8:36 AM,4.5,1.2,86,30.22,10.0,Calm,Calm,-,N/A,,Clear,0,2013-12-12 14:36:00
8:57 AM,5.5,2.1,86,30.23,10.0,Calm,Calm,-,N/A,,Clear,0,2013-12-12 14:57:00
9:16 AM,6.6,2.7,84,30.24,10.0,Calm,Calm,-,N/A,,Clear,0,2013-12-12 15:16:00
9:37 AM,7.5,2.8,81,30.26,10.0,Calm,Calm,-,N/A,,Clear,0,2013-12-12 15:37:00
9:56 AM,8.6,3.2,79,30.26,10.0,Calm,Calm,-,N/A,,Clear,0,2013-12-12 15:56:00
10:17 AM,9.5,3.7,77,30.26,10.0,WSW,3.5,-,N/A,,Clear,250,2013-12-12 16:17:00
10:37 AM,10.2,4.1,76,30.27,10.0,West,3.5,-,N/A,,Clear,280,2013-12-12 16:37:00
10:57 AM,10.6,4.3,76,30.27,10.0,Calm,Calm,-,N/A,,Clear,0,2013-12-12 16:57:00
11:16 AM,11.3,4.5,74,30.25,10.0,Calm,Calm,-,N/A,,Clear,0,2013-12-12 17:16:00
11:37 AM,12.0,5.0,73,30.25,10.0,Calm,Calm,-,N/A,,Clear,0,2013-12-12 17:37:00
11:57 AM,13.1,5.4,71,30.24,10.0,Calm,Calm,-,N/A,,Scattered Clouds,0,2013-12-12 17:57:00
12:17 PM,14.0,5.9,70,30.22,10.0,Calm,Calm,-,N/A,,Mostly Cloudy,0,2013-12-12 18:17:00
12:37 PM,14.5,6.4,70,30.22,10.0,SW,3.5,-,N/A,,Scattered Clouds,220,2013-12-12 18:37:00
12:56 PM,15.4,7.0,69,30.20,10.0,SSW,3.5,-,N/A,,Clear,210,2013-12-12 18:56:00
1:17 PM,16.2,7.5,69,30.19,10.0,SW,3.5,-,N/A,,Scattered Clouds,220,2013-12-12 19:17:00
1:36 PM,15.8,7.7,70,30.19,10.0,SW,3.5,-,N/A,,Clear,230,2013-12-12 19:36:00
1:57 PM,15.8,7.9,71,30.19,10.0,Calm,Calm,-,N/A,,Clear,0,2013-12-12 19:57:00
2:17 PM,16.3,8.4,71,30.18,10.0,SSW,3.5,-,N/A,,Scattered Clouds,200,2013-12-12 20:17:00
2:36 PM,16.5,8.6,71,30.18,10.0,SSW,3.5,-,N/A,,Overcast,210,2013-12-12 20:36:00
2:57 PM,16.5,8.6,71,30.18,10.0,Calm,Calm,-,N/A,,Overcast,0,2013-12-12 20:57:00
3:16 PM,16.5,8.8,72,30.18,10.0,Calm,Calm,-,N/A,,Overcast,0,2013-12-12 21:16:00
3:36 PM,16.7,9.5,73,30.18,10.0,Calm,Calm,-,N/A,,Overcast,0,2013-12-12 21:36:00
3:57 PM,17.1,9.7,73,30.19,10.0,Calm,Calm,-,N/A,,Overcast,0,2013-12-12 21:57:00
4:17 PM,16.7,9.5,73,30.18,10.0,Calm,Calm,-,N/A,,Overcast,0,2013-12-12 22:17:00
4:37 PM,16.7,9.9,74,30.18,10.0,Calm,Calm,-,N/A,,Overcast,0,2013-12-12 22:37:00
4:57 PM,15.8,9.5,76,30.17,10.0,Calm,Calm,-,N/A,,Scattered Clouds,0,2013-12-12 22:57:00
5:16 PM,15.4,9.7,78,30.17,10.0,Calm,Calm,-,N/A,,Scattered Clouds,0,2013-12-12 23:16:00
5:37 PM,14.5,9.5,80,30.16,10.0,Calm,Calm,-,N/A,,Scattered Clouds,0,2013-12-12 23:37:00
5:57 PM,14.0,9.7,83,30.16,10.0,Calm,Calm,-,N/A,,Scattered Clouds,0,2013-12-12 23:57:00
6:17 PM,15.8,10.9,81,30.15,10.0,SW,3.5,-,N/A,,Mostly Cloudy,220,2013-12-13 00:17:00
6:37 PM,15.8,10.8,80,30.15,10.0,Calm,Calm,-,N/A,,Overcast,0,2013-12-13 00:37:00
6:57 PM,15.8,11.1,82,30.15,10.0,Calm,Calm,-,N/A,,Overcast,0,2013-12-13 00:57:00
7:17 PM,15.8,11.3,82,30.14,10.0,Calm,Calm,-,N/A,,Mostly Cloudy,0,2013-12-13 01:17:00
7:36 PM,15.6,11.1,82,30.13,10.0,Calm,Calm,-,N/A,,Scattered Clouds,0,2013-12-13 01:36:00
7:57 PM,15.3,11.1,84,30.13,10.0,Calm,Calm,-,N/A,,Clear,0,2013-12-13 01:57:00
8:17 PM,15.1,11.3,85,30.13,10.0,Calm,Calm,-,N/A,,Clear,0,2013-12-13 02:17:00
8:37 PM,14.9,11.1,85,30.13,10.0,Calm,Calm,-,N/A,,Clear,0,2013-12-13 02:37:00
8:57 PM,14.9,11.3,86,30.14,10.0,Calm,Calm,-,N/A,,Clear,0,2013-12-13 02:57:00
9:17 PM,14.0,11.1,88,30.14,10.0,Calm,Calm,-,N/A,,Mostly Cloudy,0,2013-12-13 03:17:00
9:37 PM,14.0,11.3,89,30.14,10.0,Calm,Calm,-,N/A,,Overcast,0,2013-12-13 03:37:00
9:56 PM,14.0,10.8,87,30.14,10.0,Calm,Calm,-,N/A,,Scattered Clouds,0,2013-12-13 03:56:00
10:17 PM,13.1,10.8,90,30.14,10.0,NNW,3.5,-,N/A,,Scattered Clouds,340,2013-12-13 04:17:00
10:37 PM,12.2,10.0,91,30.13,10.0,Calm,Calm,-,N/A,,Mostly Cloudy,0,2013-12-13 04:37:00
10:56 PM,13.1,10.9,91,30.13,10.0,Calm,Calm,-,N/A,,Scattered Clouds,0,2013-12-13 04:56:00
11:17 PM,11.3,9.3,92,30.13,10.0,Calm,Calm,-,N/A,,Clear,0,2013-12-13 05:17:00
11:37 PM,12.2,10.2,92,30.13,10.0,Calm,Calm,-,N/A,,Scattered Clouds,0,2013-12-13 05:37:00
11:56 PM,11.8,9.9,92,30.14,10.0,Calm,Calm,-,N/A,,Scattered Clouds,0,2013-12-13 05:56:00